Regional Weather Roundup
Issued by NWS

Home | Current Version | Previous Version | Text Only | Print | Product List | Glossary On
Versions: 1 2 3 4 5 6 7 8 9 10 11 12 13 14 15 16 17 18 19 20 21 22 23 24 25 26 27 28
000
ASUS45 KPSR 230610
RWRAZ

ARIZONA HOURLY REGIONAL WEATHER ROUNDUP
NATIONAL WEATHER SERVICE PHOENIX AZ
1100 PM MST FRI SEP 22 2017

NOTE: FAIR INDICATES FEW OR NO CLOUDS BELOW 12,000 FEET WITH NO
SIGNIFICANT WEATHER AND/OR OBSTRUCTIONS TO VISIBILITY.

AZZ001>003-036-230700-
NORTHWEST ARIZONA

CITY           SKY/WX    TMP DP  RH WIND       PRES   REMARKS
BULLHEAD CITY  CLEAR     70  23  17 NE3       29.69S
KINGMAN        CLEAR     50  23  34 E8        29.80F
6HR MIN TEMP:  50; 6HR MAX TEMP:  71;

$$

AZZ004>008-015-016-018-230700-
NORTH CENTRAL ARIZONA

CITY           SKY/WX    TMP DP  RH WIND       PRES   REMARKS
GRAND CANYON   PTCLDY    30  14  51 CALM      29.92S
6HR MIN TEMP:  30; 6HR MAX TEMP:  63;

WILLIAMS       PTCLDY    43  14  31 CALM      29.91F
PRESCOTT       CLEAR     46  24  42 S6        29.85F
6HR MIN TEMP:  46; 6HR MAX TEMP:  67;

FLAGSTAFF      PTCLDY    43  31  62 SW5       29.93F
6HR MIN TEMP:  42; 6HR MAX TEMP:  59;

PAYSON           N/A     61  37  41 W7        29.88S
PAGE           CLEAR     62  22  21 SW3       29.79S
6HR MIN TEMP:  62; 6HR MAX TEMP:  79;

$$

AZZ009>014-017-230700-
NORTHEAST ARIZONA

CITY           SKY/WX    TMP DP  RH WIND       PRES   REMARKS
WINSLOW        PTCLDY    55  37  50 SE5       29.85S
6HR MIN TEMP:  54; 6HR MAX TEMP:  75;

SAINT JOHNS    CLEAR     57  41  55 CALM      29.89F
6HR MIN TEMP:  57; 6HR MAX TEMP:  77;

WINDOW ROCK    PTCLDY    53  29  39 CALM      29.96S
6HR MIN TEMP:  53; 6HR MAX TEMP:  72;

SHOW LOW       CLEAR     57  39  51 S10       29.92F
$$

AZZ540-542>544-546-548-230700-
GREATER PHOENIX AREA

CITY           SKY/WX    TMP DP  RH WIND       PRES   REMARKS
PHOENIX        PTCLDY    79  19  10 W10       29.66S
6HR MIN TEMP:  79; 6HR MAX TEMP:  87;

BUCKEYE        CLEAR     66  27  22 W5        29.69S
LUKE AFB       CLEAR     72  28  19 SW9       29.67R
6HR MIN TEMP:  71; 6HR MAX TEMP:  86;

DEER VALLEY    CLEAR     74  23  15 SW3       29.69R
6HR MIN TEMP:  74; 6HR MAX TEMP:  84;

SCOTTSDALE     CLEAR     76  22  13 SW3       29.70S
6HR MIN TEMP:  75; 6HR MAX TEMP:  86;

MESA-GATEWAY   PTCLDY    72  30  21 SW5       29.70S
$$

AZZ539-553-230700-
SOUTHWEST MARICOPA COUNTY AND PINAL COUNTY

CITY           SKY/WX    TMP DP  RH WIND       PRES   REMARKS
CASA GRANDE    NOT AVBL
GILA BEND      FAIR      71  19  14 SW3       29.69R
6HR MIN TEMP:  71; 6HR MAX TEMP:  86;

$$

AZZ503-504-507>509-230700-
SOUTHEAST ARIZONA

CITY           SKY/WX    TMP DP  RH WIND       PRES   REMARKS
TUCSON         CLOUDY    76  43  30 NW7       29.79S
6HR MIN TEMP:  76; 6HR MAX TEMP:  88;

DAVIS-MONTHAN  PTCLDY    74  43  32 NW6       29.77S
6HR MIN TEMP:  74; 6HR MAX TEMP:  87;

NOGALES        CLEAR     65  50  58 SE3       29.85F
6HR MIN TEMP:  64; 6HR MAX TEMP:  83;

SIERRA VISTA   CLEAR     64  46  52 W5        29.89F
6HR MIN TEMP:  64; 6HR MAX TEMP:  82;

DOUGLAS        CLEAR     69  51  52 S7        29.86F
6HR MIN TEMP:  69; 6HR MAX TEMP:  85;

SAFFORD        PTCLDY    76  44  32 SW6       29.76R
6HR MIN TEMP:  76; 6HR MAX TEMP:  87;

$$

AZZ532-230700-
SOUTHWEST ARIZONA

CITY           SKY/WX    TMP DP  RH WIND       PRES   REMARKS
YUMA           CLEAR     72  45  37 NW10      29.70R
6HR MIN TEMP:  71; 6HR MAX TEMP:  84;

$$

CAZ041-043-047-048-061-525>527-560>570-230700-
SOUTHERN CALIFORNIA

CITY           SKY/WX    TMP DP  RH WIND       PRES   REMARKS
DOWNTOWN L.A.  CLEAR     64  55  72 CALM      29.81S
6HR MIN TEMP:  64; 6HR MAX TEMP:  72;

L.A. AIRPORT   PTCLDY    63  55  75 W10       29.81S
6HR MIN TEMP:  63; 6HR MAX TEMP:  68;

SAN DIEGO      PTCLDY    66  54  65 CALM      29.85S
6HR MIN TEMP:  66; 6HR MAX TEMP:  71;

BURBANK        CLEAR     62  44  51 CALM      29.81S
6HR MIN TEMP:  62; 6HR MAX TEMP:  70;

ONTARIO        CLEAR     60  48  64 W9        29.83R
6HR MIN TEMP:  60; 6HR MAX TEMP:  72;

RIVERSIDE      CLOUDY    62  53  72 VRB3      29.83S
6HR MIN TEMP:  61; 6HR MAX TEMP:  73;

PALM SPRINGS   CLEAR     72  47  40 NW15      29.73R
6HR MIN TEMP:  72; 6HR MAX TEMP:  83;

EL CENTRO NAS  CLEAR     70  45  40 W23       29.72S
6HR MIN TEMP:  70; 6HR MAX TEMP:  85;

IMPERIAL       CLEAR     69  49  48 W16       29.70S
6HR MIN TEMP:  69; 6HR MAX TEMP:  85;

BLYTHE         CLEAR     71  23  16 NW5       29.68S
6HR MIN TEMP:  70; 6HR MAX TEMP:  84;

NEEDLES        CLEAR     75  22  13 NW8       29.69S
6HR MIN TEMP:  75; 6HR MAX TEMP:  84;

$$

NVZ020-UTZ003-230700-
SOUTHERN NEVADA-UTAH

CITY           SKY/WX    TMP DP  RH WIND       PRES   REMARKS
LAS VEGAS      CLEAR     68  21  16 N6        29.76S
6HR MIN TEMP:  67; 6HR MAX TEMP:  76;

SALT LAKE CITY PTCLDY    45  40  82 S3        29.96F
6HR MIN TEMP:  45; 6HR MAX TEMP:  52;

$$

NMZ009-TXZ055-230700-
NEW MEXICO-WEST TEXAS

CITY           SKY/WX    TMP DP  RH WIND       PRES   REMARKS
ALBUQUERQUE    PTCLDY    72  34  24 S9        29.90S
6HR MIN TEMP:  70; 6HR MAX TEMP:  83; 6HR PCP: TRACE;

EL PASO        MOCLDY    85  40  20 SW10      29.83R
6HR MIN TEMP:  82; 6HR MAX TEMP:  93;

$$


........................KEY........................
SKY/WX - SKY CONDITION/WEATHER
TMP    - TEMPERATURE IN FAHRENHEIT
DP     - DEW POINT IN FAHRENHEIT
RH     - RELATIVE HUMIDITY IN PERCENT
WIND   - DIRECTION AND SPEED IN MILES PER HOUR (MPH)
VRB    - VARIABLE WIND DIRECTION
PRES   - MEAN SEA LEVEL PRESSURE IN INCHES OF MERCURY
         F - FALLING PRESSURE   R - RISING PRESSURE
         S - STEADY PRESSURE
VSB    - VISIBILITY IN MILES
HX     - HEAT INDEX IN FAHRENHEIT
WCI    - WIND CHILL INDEX IN FAHRENHEIT
TC     - TEMPERATURE IN CELSIUS WHICH IS ALSO KNOWN AS
         TEMPERATURE IN CENTIGRADE
AFB    - AIR FORCE BASE
         LUKE AFB IS LUKE AIR FORCE BASE
         DAVIS-MONTHAN IS DAVIS-MONTHAN AIR FORCE BASE
NAS    - NAVAL AIR STATION
         EL CENTRO NAS IS EL CENTRO NAVAL AIR STATION
N/A    - NOT AVAILABLE





USA.gov is the U.S. government's official web portal to all federal, state and local government web resources and services.